Weather History for Provincetown, MA

Change the Weather History Date:

Sunday, December 8, 2013

  Actual Average Record
Temperature  
Mean Temperature 32 °F -  
Max Temperature 33 °F 43 °F 65 °F (1951)
Min Temperature 30 °F 34 °F 19 °F (2003)
Degree Days  
Heating Degree Days 34    
Moisture  
Dew Point 17 °F    
Average Humidity 54    
Maximum Humidity 64    
Minimum Humidity 44    
Precipitation  
Precipitation 0.63 in - - ()
Sea Level Pressure  
Sea Level Pressure 30.53 in    
Wind  
Wind Speed 11 mph (North)    
Max Wind Speed 15 mph    
Max Gust Speed 21 mph    
Visibility 10 miles    
Events      
Averages and records for this station are not official NWS values.
T = Trace of Precipitation, MM = Missing Value Source: NWS Daily Summary

Daily Weather History Graph

Daily Weather History Graph

Search for Another Location

Airport:

Trip Planner

Search our weather history database for the weather conditions in past years. The results will help you decide how hot, cold, wet, or windy it might be!

Date:

Astronomy

Dec. 08, 2013 Rise Set
Actual Time 6:56 AM EST 4:09 PM EST
Civil Twilight 6:25 AM EST 4:40 PM EST
Nautical Twilight 5:50 AM EST 5:15 PM EST
Astronomical Twilight 5:16 AM EST 5:49 PM EST
Moon 11:10 AM EST (12/8) 11:00 PM EST (12/8)
Length of Visible Light 10h 15m
Length of Day
9h 12m
Waxing Crescent, 40% of the Moon is Illuminated
Dec 8
Waxing Crescent
Dec 9
First Quarter
Dec 17
Full
Dec 25
Last Quarter
Jan 1
New

Hourly Weather History & Observations

Time (EST) Temp. Windchill Dew Point Humidity Pressure Visibility Wind Dir Wind Speed Gust Speed Precip Events Conditions
12:15 AM 33.8 °F 23.9 °F 15.8 °F 48% 30.44 in 10.0 mi NNW 15.0 mph 20.7 mph 0.04 in   Partly Cloudy
12:35 AM 33.8 °F 24.3 °F 17.6 °F 52% 30.44 in 10.0 mi NNW 13.8 mph 18.4 mph 0.09 in   Scattered Clouds
12:55 AM 33.8 °F 23.9 °F 15.8 °F 48% 30.45 in 10.0 mi NNW 15.0 mph 19.6 mph 0.13 in   Scattered Clouds
1:15 AM 33.8 °F 24.8 °F 15.8 °F 48% 30.45 in 10.0 mi NNW 12.7 mph 18.4 mph 0.01 in   Partly Cloudy
1:35 AM 33.8 °F 23.9 °F 17.6 °F 52% 30.46 in 10.0 mi North 15.0 mph - 0.11 in   Mostly Cloudy
1:55 AM 33.8 °F 24.8 °F 15.8 °F 48% 30.46 in 10.0 mi NNW 12.7 mph 18.4 mph 0.23 in   Mostly Cloudy
2:15 AM 33.8 °F 24.8 °F 15.8 °F 48% 30.47 in 10.0 mi NNW 12.7 mph 17.3 mph 0.04 in   Scattered Clouds
2:35 AM 33.8 °F 24.8 °F 17.6 °F 52% 30.46 in 10.0 mi NNW 12.7 mph 19.6 mph 0.12 in   Scattered Clouds
2:55 AM 32.0 °F 22.1 °F 17.6 °F 55% 30.46 in 10.0 mi North 13.8 mph 18.4 mph 0.21 in   Scattered Clouds
3:15 AM 32.0 °F 22.1 °F 17.6 °F 55% 30.46 in 10.0 mi North 13.8 mph - 0.01 in   Partly Cloudy
3:35 AM 32.0 °F 21.6 °F 17.6 °F 55% 30.46 in 10.0 mi NNW 15.0 mph 20.7 mph 0.01 in   Partly Cloudy
3:55 AM 32.0 °F 22.5 °F 17.6 °F 55% 30.48 in 10.0 mi NNW 12.7 mph 16.1 mph 0.01 in   Scattered Clouds
4:15 AM 32.0 °F 22.5 °F 17.6 °F 55% 30.48 in 10.0 mi NW 12.7 mph - N/A   Partly Cloudy
4:35 AM 32.0 °F 22.1 °F 17.6 °F 55% 30.49 in 10.0 mi NNW 13.8 mph - N/A   Scattered Clouds
4:55 AM 32.0 °F 23.0 °F 17.6 °F 55% 30.49 in 10.0 mi NNW 11.5 mph - N/A   Mostly Cloudy
5:15 AM 32.0 °F 23.6 °F 17.6 °F 55% 30.50 in 10.0 mi NNW 10.4 mph 18.4 mph N/A   Scattered Clouds
5:35 AM 32.0 °F 23.6 °F 17.6 °F 55% 30.52 in 10.0 mi North 10.4 mph - N/A   Mostly Cloudy
5:55 AM 32.0 °F 24.8 °F 17.6 °F 55% 30.53 in 10.0 mi NNW 8.1 mph 16.1 mph N/A   Mostly Cloudy
6:15 AM 32.0 °F 24.2 °F 19.4 °F 60% 30.53 in 10.0 mi NW 9.2 mph - N/A   Mostly Cloudy
6:35 AM 32.0 °F 22.5 °F 17.6 °F 55% 30.54 in 10.0 mi North 12.7 mph - N/A   Overcast
6:55 AM 30.2 °F 19.8 °F 17.6 °F 60% 30.55 in 10.0 mi NNW 13.8 mph - N/A   Overcast
7:15 AM 30.2 °F 21.3 °F 15.8 °F 55% 30.55 in 10.0 mi North 10.4 mph - N/A   Scattered Clouds
7:35 AM 30.2 °F 21.9 °F 15.8 °F 55% 30.56 in 10.0 mi North 9.2 mph 18.4 mph N/A   Mostly Cloudy
7:55 AM 30.2 °F 21.9 °F 14.0 °F 51% 30.56 in 10.0 mi NNW 9.2 mph - N/A   Scattered Clouds
8:15 AM 30.2 °F 21.9 °F 15.8 °F 55% 30.57 in 10.0 mi North 9.2 mph 17.3 mph N/A   Clear
8:35 AM 32.0 °F 25.6 °F 15.8 °F 51% 30.56 in 10.0 mi North 6.9 mph 16.1 mph N/A   Clear
8:55 AM 33.8 °F 25.8 °F 15.8 °F 48% 30.56 in 10.0 mi North 10.4 mph - N/A   Partly Cloudy
9:15 AM 33.8 °F 25.3 °F 15.8 °F 48% 30.58 in 10.0 mi NNW 11.5 mph - N/A   Partly Cloudy
9:35 AM 33.8 °F 26.4 °F 14.0 °F 44% 30.57 in 10.0 mi NNW 9.2 mph - N/A   Partly Cloudy
9:55 AM 33.8 °F 26.4 °F 15.8 °F 48% 30.57 in 10.0 mi North 9.2 mph - N/A   Partly Cloudy
10:15 AM 33.8 °F 26.4 °F 15.8 °F 48% 30.59 in 10.0 mi North 9.2 mph - N/A   Clear
10:35 AM 33.8 °F 27.7 °F 15.8 °F 48% 30.59 in 10.0 mi NNW 6.9 mph - N/A   Clear
10:55 AM 33.8 °F 26.4 °F 15.8 °F 48% 30.58 in 10.0 mi NNW 9.2 mph 17.3 mph N/A   Partly Cloudy
11:15 AM 33.8 °F 27.0 °F 15.8 °F 48% 30.57 in 10.0 mi North 8.1 mph - N/A   Scattered Clouds
11:35 AM 32.0 °F 25.6 °F 15.8 °F 51% 30.57 in 10.0 mi NW 6.9 mph - N/A   Mostly Cloudy
11:55 AM 33.8 °F 27.0 °F 15.8 °F 48% 30.56 in 10.0 mi North 8.1 mph - N/A   Mostly Cloudy
12:15 PM 32.0 °F 24.2 °F 15.8 °F 51% 30.54 in 10.0 mi North 9.2 mph - N/A   Mostly Cloudy
12:35 PM 32.0 °F 25.6 °F 17.6 °F 55% 30.53 in 10.0 mi North 6.9 mph - N/A   Scattered Clouds
12:55 PM 32.0 °F 24.8 °F 17.6 °F 55% 30.53 in 10.0 mi NNW 8.1 mph - N/A   Scattered Clouds
1:15 PM 32.0 °F 24.8 °F 17.6 °F 55% 30.54 in 10.0 mi NNW 8.1 mph - N/A   Partly Cloudy
1:35 PM 32.0 °F 24.8 °F 15.8 °F 51% 30.54 in 10.0 mi North 8.1 mph - N/A   Clear
1:55 PM 32.0 °F 24.8 °F 15.8 °F 51% 30.54 in 10.0 mi NNW 8.1 mph - N/A   Clear
2:15 PM 32.0 °F 25.6 °F 15.8 °F 51% 30.55 in 10.0 mi NNW 6.9 mph - N/A   Clear
2:35 PM 32.0 °F 24.2 °F 15.8 °F 51% 30.54 in 10.0 mi NNW 9.2 mph - N/A   Partly Cloudy
2:55 PM 32.0 °F 24.2 °F 15.8 °F 51% 30.53 in 10.0 mi NNW 9.2 mph - N/A   Partly Cloudy
3:15 PM 30.2 °F 25.4 °F 15.8 °F 55% 30.51 in 10.0 mi North 4.6 mph - 0.01 in   Clear
3:35 PM 30.2 °F 22.6 °F 17.6 °F 60% 30.53 in 10.0 mi North 8.1 mph - 0.01 in   Clear
3:55 PM 30.2 °F 24.3 °F 17.6 °F 60% 30.54 in 10.0 mi NNW 5.8 mph - 0.01 in   Clear
4:15 PM 30.2 °F 25.4 °F 17.6 °F 60% 30.55 in 10.0 mi NNW 4.6 mph - N/A   Clear
4:35 PM 30.2 °F 24.3 °F 17.6 °F 60% 30.56 in 10.0 mi North 5.8 mph - N/A   Clear
4:55 PM 30.2 °F 22.6 °F 19.4 °F 64% 30.56 in 10.0 mi NNW 8.1 mph - 0.01 in   Mostly Cloudy
5:15 PM 30.2 °F 24.3 °F 17.6 °F 60% 30.56 in 10.0 mi NNW 5.8 mph - N/A   Overcast
5:35 PM 30.2 °F 23.4 °F 17.6 °F 60% 30.57 in 10.0 mi NW 6.9 mph - N/A   Overcast
5:55 PM 30.2 °F 23.4 °F 17.6 °F 60% 30.57 in 10.0 mi NNW 6.9 mph - N/A   Mostly Cloudy
6:15 PM 30.2 °F 23.4 °F 17.6 °F 60% 30.57 in 10.0 mi North 6.9 mph - N/A   Scattered Clouds
6:35 PM 30.2 °F 24.3 °F 17.6 °F 60% 30.56 in 10.0 mi North 5.8 mph - N/A   Mostly Cloudy
6:55 PM 30.2 °F 24.3 °F 17.6 °F 60% 30.55 in 10.0 mi NNW 5.8 mph - N/A   Mostly Cloudy
7:15 PM 30.2 °F 24.3 °F 17.6 °F 60% 30.56 in 10.0 mi NNE 5.8 mph - N/A   Mostly Cloudy
7:35 PM 30.2 °F 25.4 °F 15.8 °F 55% 30.57 in 10.0 mi North 4.6 mph - N/A   Overcast
7:55 PM 32.0 °F - 17.6 °F 55% 30.56 in 10.0 mi Calm Calm - N/A   Overcast
8:15 PM 30.2 °F 25.4 °F 15.8 °F 55% 30.56 in 10.0 mi NE 4.6 mph - N/A   Overcast
8:35 PM 30.2 °F 26.7 °F 17.6 °F 60% 30.55 in 10.0 mi NE 3.5 mph - N/A   Overcast
8:55 PM 30.2 °F 24.3 °F 17.6 °F 60% 30.55 in 10.0 mi NE 5.8 mph - N/A   Overcast
9:15 PM 32.0 °F 28.7 °F 17.6 °F 55% 30.55 in 10.0 mi NNE 3.5 mph - N/A   Overcast
9:35 PM 32.0 °F 27.5 °F 17.6 °F 55% 30.53 in 10.0 mi ENE 4.6 mph - 0.02 in   Overcast
9:55 PM 32.0 °F 26.4 °F 19.4 °F 60% 30.53 in 10.0 mi ENE 5.8 mph - 0.02 in   Overcast
10:15 PM 32.0 °F 25.6 °F 19.4 °F 60% 30.52 in 10.0 mi NE 6.9 mph - N/A   Overcast
10:35 PM 32.0 °F 27.5 °F 19.4 °F 60% 30.51 in 10.0 mi ENE 4.6 mph - N/A   Mostly Cloudy
10:55 PM 32.0 °F 26.4 °F 19.4 °F 60% 30.51 in 10.0 mi East 5.8 mph - N/A   Mostly Cloudy
11:15 PM 33.8 °F 27.0 °F 19.4 °F 56% 30.49 in 10.0 mi East 8.1 mph - N/A   Mostly Cloudy
11:35 PM 33.8 °F 27.0 °F 19.4 °F 56% 30.49 in 10.0 mi ENE 8.1 mph - 0.01 in   Mostly Cloudy
11:55 PM 33.8 °F 27.7 °F 19.4 °F 56% 30.49 in 10.0 mi East 6.9 mph - 0.01 in   Overcast